Time,TemperatureF,DewpointF,PressureIn,WindDirection,WindDirectionDegrees,WindSpeedMPH,WindSpeedGustMPH,Humidity,HourlyPrecipIn,Conditions,Clouds,dailyrainin,SoftwareType,DateUTC
2013-02-28 00:02:00,33.0,-99.9,-100.00,NW,310,9.0,13.0,-999,0.00,,,-99.99,,2013-02-28 06:02:00,
2013-02-28 00:11:00,33.0,-99.9,-100.00,NW,315,11.0,13.0,-999,0.00,,,0.11,,2013-02-28 06:11:00,
2013-02-28 00:22:00,33.0,-99.9,-100.00,NW,315,11.0,13.0,-999,0.00,,,0.11,,2013-02-28 06:22:00,
2013-02-28 00:32:00,33.0,-99.9,-100.00,NW,315,11.0,13.0,-999,0.00,,,0.11,,2013-02-28 06:32:00,
2013-02-28 00:42:00,33.0,-99.9,-100.00,NW,319,12.0,15.0,-999,0.00,,,0.11,,2013-02-28 06:42:00,
2013-02-28 00:52:00,33.0,-99.9,-100.00,NW,319,12.0,15.0,-999,0.00,,,0.11,,2013-02-28 06:52:00,
2013-02-28 01:01:00,33.0,-99.9,-100.00,NW,319,12.0,15.0,-999,0.00,,,0.11,,2013-02-28 07:01:00,
2013-02-28 01:11:00,33.0,-99.9,-100.00,NW,321,14.0,16.0,-999,0.00,,,0.11,,2013-02-28 07:11:00,
2013-02-28 01:22:00,33.0,-99.9,-100.00,NW,321,14.0,16.0,-999,0.00,,,0.11,,2013-02-28 07:22:00,
2013-02-28 01:32:00,33.0,-99.9,-100.00,NW,321,14.0,16.0,-999,0.00,,,0.11,,2013-02-28 07:32:00,
2013-02-28 01:42:00,33.0,-99.9,-100.00,NW,321,12.0,15.0,-999,0.00,,,0.11,,2013-02-28 07:42:00,
2013-02-28 01:52:00,33.0,-99.9,-100.00,NW,321,12.0,15.0,-999,0.00,,,0.11,,2013-02-28 07:52:00,
2013-02-28 02:01:00,33.0,-99.9,-100.00,NW,321,12.0,15.0,-999,0.00,,,0.11,,2013-02-28 08:01:00,
2013-02-28 02:12:00,33.0,-99.9,-100.00,NW,317,12.0,15.0,-999,0.00,,,0.11,,2013-02-28 08:12:00,
2013-02-28 02:22:00,33.0,-99.9,-100.00,NW,317,12.0,15.0,-999,0.00,,,0.11,,2013-02-28 08:22:00,
2013-02-28 02:32:00,33.0,-99.9,-100.00,NW,317,12.0,15.0,-999,0.00,,,0.11,,2013-02-28 08:32:00,
2013-02-28 02:42:00,33.0,-99.9,-100.00,NW,325,12.0,15.0,-999,0.00,,,0.11,,2013-02-28 08:42:00,
2013-02-28 02:53:00,33.0,-99.9,-100.00,NW,325,12.0,15.0,-999,0.00,,,0.11,,2013-02-28 08:53:00,
2013-02-28 03:04:00,33.0,-99.9,-100.00,NW,325,12.0,15.0,-999,0.00,,,0.11,,2013-02-28 09:04:00,
2013-02-28 03:12:00,33.0,-99.9,-100.00,NW,318,14.0,16.0,-999,0.00,,,0.11,,2013-02-28 09:12:00,
2013-02-28 03:22:00,33.0,-99.9,-100.00,NW,318,14.0,16.0,-999,0.00,,,0.11,,2013-02-28 09:22:00,
2013-02-28 03:32:00,33.0,-99.9,-100.00,NW,318,14.0,16.0,-999,0.00,,,0.11,,2013-02-28 09:32:00,
2013-02-28 03:42:00,33.0,-99.9,-100.00,NW,324,12.0,14.0,-999,0.00,,,0.11,,2013-02-28 09:42:00,
2013-02-28 03:53:00,33.0,-99.9,-100.00,NW,324,12.0,14.0,-999,0.00,,,0.11,,2013-02-28 09:53:00,
2013-02-28 04:02:00,33.0,-99.9,-100.00,NW,324,12.0,14.0,-999,0.00,,,0.11,,2013-02-28 10:02:00,
2013-02-28 04:12:00,33.0,-99.9,-100.00,NNW,331,10.0,14.0,-999,0.00,,,0.11,,2013-02-28 10:12:00,
2013-02-28 04:22:00,33.0,-99.9,-100.00,NNW,331,10.0,14.0,-999,0.00,,,0.11,,2013-02-28 10:22:00,
2013-02-28 04:32:00,33.0,-99.9,-100.00,NNW,331,10.0,14.0,-999,0.00,,,0.11,,2013-02-28 10:32:00,
2013-02-28 04:42:00,33.0,-99.9,-100.00,NNW,331,9.0,12.0,-999,0.00,,,0.11,,2013-02-28 10:42:00,
2013-02-28 04:52:00,33.0,-99.9,-100.00,NNW,331,9.0,12.0,-999,0.00,,,0.11,,2013-02-28 10:52:00,
2013-02-28 05:02:00,33.0,-99.9,-100.00,NNW,331,9.0,12.0,-999,0.00,,,0.11,,2013-02-28 11:02:00,
2013-02-28 05:12:00,33.0,-99.9,-100.00,NNW,331,10.0,12.0,-999,0.00,,,0.11,,2013-02-28 11:12:00,
2013-02-28 05:22:00,33.0,-99.9,-100.00,NNW,331,10.0,12.0,-999,0.00,,,0.11,,2013-02-28 11:22:00,
2013-02-28 05:32:00,33.0,-99.9,-100.00,NNW,331,10.0,12.0,-999,0.00,,,0.11,,2013-02-28 11:32:00,
2013-02-28 05:42:00,32.0,-99.9,-100.00,NNW,341,9.0,12.0,-999,0.00,,,0.11,,2013-02-28 11:42:00,
2013-02-28 05:53:00,32.0,-99.9,-100.00,NNW,341,9.0,12.0,-999,0.00,,,0.11,,2013-02-28 11:53:00,
2013-02-28 06:02:00,32.0,-99.9,-100.00,NNW,341,9.0,12.0,-999,0.00,,,0.11,,2013-02-28 12:02:00,
2013-02-28 06:12:00,32.0,-99.9,-100.00,NNW,335,11.0,15.0,-999,0.00,,,0.11,,2013-02-28 12:12:00,
2013-02-28 06:22:00,32.0,-99.9,-100.00,NNW,335,11.0,15.0,-999,0.00,,,0.11,,2013-02-28 12:22:00,
2013-02-28 06:32:00,32.0,-99.9,-100.00,NNW,335,11.0,15.0,-999,0.00,,,0.11,,2013-02-28 12:32:00,
2013-02-28 06:43:00,32.0,-99.9,-100.00,NNW,328,12.0,15.0,-999,0.00,,,0.11,,2013-02-28 12:43:00,
2013-02-28 06:53:00,32.0,-99.9,-100.00,NNW,328,12.0,15.0,-999,0.00,,,0.11,,2013-02-28 12:53:00,
2013-02-28 07:02:00,32.0,-99.9,-100.00,NNW,328,12.0,15.0,-999,0.00,,,0.11,,2013-02-28 13:02:00,
2013-02-28 07:12:00,32.0,-99.9,-100.00,NW,324,11.0,13.0,-999,0.00,,,0.11,,2013-02-28 13:12:00,
2013-02-28 07:22:00,32.0,-99.9,-100.00,NW,324,11.0,13.0,-999,0.00,,,0.11,,2013-02-28 13:22:00,
2013-02-28 07:32:00,32.0,-99.9,-100.00,NW,324,11.0,13.0,-999,0.00,,,0.11,,2013-02-28 13:32:00,
2013-02-28 07:42:00,32.0,-99.9,-100.00,NNW,331,11.0,15.0,-999,0.00,,,0.11,,2013-02-28 13:42:00,
2013-02-28 07:52:00,32.0,-99.9,-100.00,NNW,331,11.0,15.0,-999,0.00,,,0.11,,2013-02-28 13:52:00,
2013-02-28 08:02:00,32.0,-99.9,-100.00,NNW,331,11.0,15.0,-999,0.00,,,0.11,,2013-02-28 14:02:00,
2013-02-28 08:12:00,32.0,-99.9,-100.00,NNW,327,11.0,13.0,-999,0.00,,,0.11,,2013-02-28 14:12:00,
2013-02-28 08:22:00,32.0,-99.9,-100.00,NNW,327,11.0,13.0,-999,0.00,,,0.11,,2013-02-28 14:22:00,
2013-02-28 08:32:00,32.0,-99.9,-100.00,NNW,327,11.0,13.0,-999,0.00,,,0.11,,2013-02-28 14:32:00,
2013-02-28 08:42:00,32.0,-99.9,-100.00,NNW,335,10.0,13.0,-999,0.00,,,0.11,,2013-02-28 14:42:00,
2013-02-28 08:52:00,32.0,-99.9,-100.00,NNW,335,10.0,13.0,-999,0.00,,,0.11,,2013-02-28 14:52:00,
2013-02-28 09:02:00,32.0,-99.9,-100.00,NNW,335,10.0,13.0,-999,0.00,,,0.11,,2013-02-28 15:02:00,
2013-02-28 09:11:00,32.0,-99.9,-100.00,NNW,328,9.0,14.0,-999,0.00,,,0.11,,2013-02-28 15:11:00,
2013-02-28 09:22:00,32.0,-99.9,-100.00,NNW,328,9.0,14.0,-999,0.00,,,0.11,,2013-02-28 15:22:00,
2013-02-28 09:32:00,32.0,-99.9,-100.00,NNW,328,9.0,14.0,-999,0.00,,,0.11,,2013-02-28 15:32:00,
2013-02-28 09:42:00,33.0,-99.9,-100.00,NW,322,12.0,18.0,-999,0.00,,,-99.99,,2013-02-28 15:42:00,
2013-02-28 09:53:00,33.0,-99.9,-100.00,NW,322,12.0,18.0,-999,0.00,,,-99.99,,2013-02-28 15:53:00,
2013-02-28 10:02:00,33.0,-99.9,-100.00,NW,322,12.0,18.0,-999,0.00,,,-99.99,,2013-02-28 16:02:00,
2013-02-28 10:12:00,34.0,-99.9,-100.00,NNW,332,9.0,11.0,-999,0.00,,,0.11,,2013-02-28 16:12:00,
2013-02-28 10:22:00,34.0,-99.9,-100.00,NNW,332,9.0,11.0,-999,0.00,,,0.11,,2013-02-28 16:22:00,
2013-02-28 10:32:00,34.0,-99.9,-100.00,NNW,332,9.0,11.0,-999,0.00,,,0.11,,2013-02-28 16:32:00,
2013-02-28 10:43:00,34.0,-99.9,-100.00,NNW,332,10.0,15.0,-999,0.00,,,0.11,,2013-02-28 16:43:00,
2013-02-28 10:53:00,34.0,-99.9,-100.00,NNW,332,10.0,15.0,-999,0.00,,,0.11,,2013-02-28 16:53:00,
2013-02-28 11:02:00,34.0,-99.9,-100.00,NNW,332,10.0,15.0,-999,0.00,,,0.11,,2013-02-28 17:02:00,
2013-02-28 11:12:00,34.0,-99.9,-100.00,NW,322,8.0,11.0,-999,0.00,,,0.11,,2013-02-28 17:12:00,
2013-02-28 11:22:00,34.0,-99.9,-100.00,NW,322,8.0,11.0,-999,0.00,,,0.11,,2013-02-28 17:22:00,
2013-02-28 11:33:00,34.0,-99.9,-100.00,NW,322,8.0,11.0,-999,0.00,,,0.11,,2013-02-28 17:33:00,
2013-02-28 11:42:00,34.0,-99.9,-100.00,NNW,328,10.0,14.0,-999,0.00,,,0.11,,2013-02-28 17:42:00,
2013-02-28 11:53:00,34.0,-99.9,-100.00,NNW,328,10.0,14.0,-999,0.00,,,0.11,,2013-02-28 17:53:00,
2013-02-28 12:02:00,34.0,-99.9,-100.00,NNW,328,10.0,14.0,-999,0.00,,,0.11,,2013-02-28 18:02:00,
2013-02-28 12:12:00,34.0,-99.9,-100.00,NNW,330,10.0,13.0,-999,0.00,,,0.11,,2013-02-28 18:12:00,
2013-02-28 12:22:00,34.0,-99.9,-100.00,NNW,330,10.0,13.0,-999,0.00,,,0.11,,2013-02-28 18:22:00,
2013-02-28 12:32:00,34.0,-99.9,-100.00,NNW,330,10.0,13.0,-999,0.00,,,0.11,,2013-02-28 18:32:00,
2013-02-28 12:43:00,34.0,-99.9,-100.00,NNW,327,10.0,13.0,-999,0.00,,,0.11,,2013-02-28 18:43:00,
2013-02-28 12:53:00,34.0,-99.9,-100.00,NNW,327,10.0,13.0,-999,0.00,,,0.11,,2013-02-28 18:53:00,
2013-02-28 13:02:00,34.0,-99.9,-100.00,NNW,327,10.0,13.0,-999,0.00,,,0.11,,2013-02-28 19:02:00,
2013-02-28 13:12:00,35.0,-99.9,-100.00,NW,322,10.0,13.0,-999,0.00,,,0.03,,2013-02-28 19:12:00,
2013-02-28 13:22:00,35.0,-99.9,-100.00,NW,322,10.0,13.0,-999,0.00,,,0.03,,2013-02-28 19:22:00,
2013-02-28 13:32:00,35.0,-99.9,-100.00,NW,322,10.0,13.0,-999,0.00,,,0.03,,2013-02-28 19:32:00,
2013-02-28 13:42:00,35.0,-99.9,-100.00,NW,325,12.0,14.0,-999,0.00,,,0.01,,2013-02-28 19:42:00,
2013-02-28 13:52:00,35.0,-99.9,-100.00,NW,325,12.0,14.0,-999,0.00,,,0.01,,2013-02-28 19:52:00,
2013-02-28 14:02:00,35.0,-99.9,-100.00,NW,325,12.0,14.0,-999,0.00,,,0.01,,2013-02-28 20:02:00,
2013-02-28 14:12:00,35.0,-99.9,-100.00,NW,322,10.0,13.0,-999,0.00,,,0.00,,2013-02-28 20:12:00,
2013-02-28 14:22:00,35.0,-99.9,-100.00,NW,322,10.0,13.0,-999,0.00,,,0.00,,2013-02-28 20:22:00,
2013-02-28 14:32:00,35.0,-99.9,-100.00,NW,322,10.0,13.0,-999,0.00,,,0.00,,2013-02-28 20:32:00,
2013-02-28 14:42:00,35.0,-99.9,-100.00,NNW,332,9.0,10.0,-999,0.00,,,0.00,,2013-02-28 20:42:00,
2013-02-28 14:52:00,35.0,-99.9,-100.00,NNW,332,9.0,10.0,-999,0.00,,,0.00,,2013-02-28 20:52:00,
2013-02-28 15:02:00,35.0,-99.9,-100.00,NNW,332,9.0,10.0,-999,0.00,,,0.00,,2013-02-28 21:02:00,
2013-02-28 15:11:00,35.0,-99.9,-100.00,NW,324,9.0,11.0,-999,0.00,,,0.00,,2013-02-28 21:11:00,
2013-02-28 15:22:00,35.0,-99.9,-100.00,NW,324,9.0,11.0,-999,0.00,,,0.00,,2013-02-28 21:22:00,
2013-02-28 15:32:00,35.0,-99.9,-100.00,NW,324,9.0,11.0,-999,0.00,,,0.00,,2013-02-28 21:32:00,
2013-02-28 15:42:00,35.0,-99.9,-100.00,NNW,330,8.0,11.0,-999,0.00,,,0.00,,2013-02-28 21:42:00,
2013-02-28 15:52:00,35.0,-99.9,-100.00,NNW,330,8.0,11.0,-999,0.00,,,0.00,,2013-02-28 21:52:00,
2013-02-28 16:02:00,35.0,-99.9,-100.00,NNW,330,8.0,11.0,-999,0.00,,,0.00,,2013-02-28 22:02:00,
2013-02-28 16:12:00,35.0,-99.9,-100.00,NNW,338,7.0,9.0,-999,0.00,,,0.00,,2013-02-28 22:12:00,
2013-02-28 16:22:00,35.0,-99.9,-100.00,NNW,338,7.0,9.0,-999,0.00,,,0.00,,2013-02-28 22:22:00,
2013-02-28 16:32:00,35.0,-99.9,-100.00,NNW,338,7.0,9.0,-999,0.00,,,0.00,,2013-02-28 22:32:00,
2013-02-28 16:42:00,35.0,-99.9,-100.00,NW,325,7.0,8.0,-999,0.00,,,0.00,,2013-02-28 22:42:00,
2013-02-28 16:52:00,35.0,-99.9,-100.00,NW,325,7.0,8.0,-999,0.00,,,0.00,,2013-02-28 22:52:00,
2013-02-28 17:02:00,35.0,-99.9,-100.00,NW,325,7.0,8.0,-999,0.00,,,0.00,,2013-02-28 23:02:00,
2013-02-28 17:12:00,35.0,-99.9,-100.00,NW,325,8.0,11.0,-999,0.00,,,0.00,,2013-02-28 23:12:00,
2013-02-28 17:22:00,35.0,-99.9,-100.00,NW,325,8.0,11.0,-999,0.00,,,0.00,,2013-02-28 23:22:00,
2013-02-28 17:32:00,35.0,-99.9,-100.00,NW,325,8.0,11.0,-999,0.00,,,0.00,,2013-02-28 23:32:00,
2013-02-28 17:42:00,35.0,-99.9,-100.00,NNW,328,8.0,10.0,-999,0.00,,,0.00,,2013-02-28 23:42:00,
2013-02-28 17:53:00,35.0,-99.9,-100.00,NNW,328,8.0,10.0,-999,0.00,,,0.00,,2013-02-28 23:53:00,
2013-02-28 18:02:00,35.0,-99.9,-100.00,NNW,328,8.0,10.0,-999,0.00,,,0.00,,2013-03-01 00:02:00,
2013-02-28 18:12:00,34.0,-99.9,-100.00,NW,322,10.0,12.0,-999,0.00,,,0.00,,2013-03-01 00:12:00,
2013-02-28 18:23:00,34.0,-99.9,-100.00,NW,322,10.0,12.0,-999,0.00,,,0.00,,2013-03-01 00:23:00,
2013-02-28 18:32:00,33.0,-99.9,-100.00,NW,309,10.0,12.0,-999,0.00,,,-99.99,,2013-03-01 00:32:00,
2013-02-28 18:42:00,33.0,-99.9,-100.00,NW,309,10.0,12.0,-999,0.00,,,-99.99,,2013-03-01 00:42:00,
2013-02-28 18:52:00,33.0,-99.9,-100.00,NW,309,10.0,12.0,-999,0.00,,,-99.99,,2013-03-01 00:52:00,
2013-02-28 19:02:00,33.0,-99.9,-100.00,NW,309,10.0,12.0,-999,0.00,,,-99.99,,2013-03-01 01:02:00,
2013-02-28 19:11:00,33.0,-99.9,-100.00,NW,307,8.0,9.0,-999,0.00,,,0.00,,2013-03-01 01:11:00,
2013-02-28 19:22:00,33.0,-99.9,-100.00,NW,307,8.0,9.0,-999,0.00,,,0.00,,2013-03-01 01:22:00,
2013-02-28 19:32:00,33.0,-99.9,-100.00,NW,307,8.0,9.0,-999,0.00,,,0.00,,2013-03-01 01:32:00,
2013-02-28 19:42:00,32.0,-99.9,-100.00,NW,318,7.0,9.0,-999,0.00,,,0.00,,2013-03-01 01:42:00,
2013-02-28 19:52:00,32.0,-99.9,-100.00,NW,318,7.0,9.0,-999,0.00,,,0.00,,2013-03-01 01:52:00,
2013-02-28 20:02:00,32.0,-99.9,-100.00,NW,318,7.0,9.0,-999,0.00,,,0.00,,2013-03-01 02:02:00,
2013-02-28 20:11:00,32.0,-99.9,-100.00,NW,309,9.0,10.0,-999,0.00,,,0.00,,2013-03-01 02:11:00,
2013-02-28 20:22:00,32.0,-99.9,-100.00,NW,309,9.0,10.0,-999,0.00,,,0.00,,2013-03-01 02:22:00,
2013-02-28 20:32:00,32.0,-99.9,-100.00,NW,309,9.0,10.0,-999,0.00,,,0.00,,2013-03-01 02:32:00,
2013-02-28 20:40:00,31.0,-99.9,-100.00,WNW,298,7.0,8.0,-999,0.00,,,0.00,,2013-03-01 02:40:00,
2013-02-28 20:42:00,32.0,-99.9,-100.00,NW,308,8.0,9.0,-999,0.00,,,0.00,,2013-03-01 02:42:00,
2013-02-28 20:52:00,32.0,-99.9,-100.00,NW,308,8.0,9.0,-999,0.00,,,0.00,,2013-03-01 02:52:00,
2013-02-28 21:02:00,32.0,-99.9,-100.00,NW,308,8.0,9.0,-999,0.00,,,0.00,,2013-03-01 03:02:00,
2013-02-28 21:12:00,31.0,-99.9,-100.00,WNW,298,7.0,8.0,-999,0.00,,,0.00,,2013-03-01 03:12:00,
2013-02-28 21:22:00,31.0,-99.9,-100.00,WNW,298,7.0,8.0,-999,0.00,,,0.00,,2013-03-01 03:22:00,
2013-02-28 21:32:00,31.0,-99.9,-100.00,WNW,298,7.0,8.0,-999,0.00,,,0.00,,2013-03-01 03:32:00,
2013-02-28 21:52:00,31.0,-99.9,-100.00,NW,322,9.0,12.0,-999,0.00,,,0.00,,2013-03-01 03:52:00,
2013-02-28 22:02:00,31.0,-99.9,-100.00,NW,322,9.0,12.0,-999,0.00,,,0.00,,2013-03-01 04:02:00,
2013-02-28 22:12:00,31.0,-99.9,-100.00,NNW,328,7.0,9.0,-999,0.00,,,0.00,,2013-03-01 04:12:00,
2013-02-28 22:22:00,31.0,-99.9,-100.00,NNW,328,7.0,9.0,-999,0.00,,,0.00,,2013-03-01 04:22:00,
2013-02-28 22:32:00,30.0,-99.9,-100.00,NNW,328,7.0,9.0,-999,0.00,,,0.00,,2013-03-01 04:32:00,
2013-02-28 22:42:00,30.0,-99.9,-100.00,NNW,328,7.0,9.0,-999,0.00,,,0.00,,2013-03-01 04:42:00,
2013-02-28 22:52:00,30.0,-99.9,-100.00,NNW,328,7.0,9.0,-999,0.00,,,0.00,,2013-03-01 04:52:00,
2013-02-28 23:03:00,30.0,-99.9,-100.00,NNW,328,7.0,9.0,-999,0.00,,,0.00,,2013-03-01 05:03:00,
2013-02-28 23:11:00,30.0,-99.9,-100.00,NW,326,7.0,8.0,-999,0.00,,,0.00,,2013-03-01 05:11:00,
2013-02-28 23:23:00,30.0,-99.9,-100.00,NW,326,7.0,8.0,-999,0.00,,,0.00,,2013-03-01 05:23:00,
2013-02-28 23:33:00,30.0,-99.9,-100.00,NNW,328,6.0,9.0,-999,0.00,,,-99.99,,2013-03-01 05:33:00,
2013-02-28 23:42:00,30.0,-99.9,-100.00,NNW,328,6.0,9.0,-999,0.00,,,-99.99,,2013-03-01 05:42:00,
2013-02-28 23:53:00,30.0,-99.9,-100.00,NNW,328,6.0,9.0,-999,0.00,,,-99.99,,2013-03-01 05:53:00,